TimeCST,TemperatureF,Dew PointF,Humidity,Sea Level PressureIn,VisibilityMPH,Wind Direction,Wind SpeedMPH,Gust SpeedMPH,PrecipitationIn,Events,Conditions,WindDirDegrees,DateUTC
12:15 AM,27.0,19.4,73,30.19,10.0,South,9.2,-,N/A,,Clear,180,2013-01-07 06:15:00
12:35 AM,26.2,19.4,75,30.19,10.0,South,8.1,-,N/A,,Clear,180,2013-01-07 06:35:00
12:55 AM,26.6,19.4,74,30.19,10.0,South,10.4,-,N/A,,Clear,180,2013-01-07 06:55:00
1:15 AM,26.6,19.2,74,30.18,10.0,South,10.4,-,N/A,,Clear,170,2013-01-07 07:15:00
1:35 AM,26.6,19.4,74,30.19,10.0,South,9.2,-,N/A,,Clear,180,2013-01-07 07:35:00
1:55 AM,27.0,19.4,73,30.19,10.0,South,11.5,-,N/A,,Clear,180,2013-01-07 07:55:00
2:15 AM,27.1,19.4,73,30.20,10.0,South,12.7,-,N/A,,Clear,180,2013-01-07 08:15:00
2:35 AM,27.7,19.8,72,30.20,10.0,South,12.7,-,N/A,,Clear,180,2013-01-07 08:35:00
2:55 AM,28.4,20.1,71,30.19,10.0,South,12.7,-,N/A,,Clear,180,2013-01-07 08:55:00
3:15 AM,28.2,20.1,72,30.18,10.0,South,15.0,-,N/A,,Clear,180,2013-01-07 09:15:00
3:35 AM,28.4,20.1,71,30.18,10.0,South,12.7,18.4,N/A,,Clear,170,2013-01-07 09:35:00
3:55 AM,28.2,20.1,72,30.17,10.0,South,12.7,18.4,N/A,,Clear,180,2013-01-07 09:55:00
4:15 AM,28.0,20.1,72,30.16,10.0,South,11.5,-,N/A,,Clear,170,2013-01-07 10:15:00
4:35 AM,27.9,20.1,73,30.15,10.0,South,10.4,-,N/A,,Clear,170,2013-01-07 10:35:00
4:55 AM,28.0,20.3,73,30.14,10.0,South,10.4,-,N/A,,Clear,170,2013-01-07 10:55:00
5:15 AM,28.6,20.3,71,30.14,10.0,South,8.1,-,N/A,,Clear,170,2013-01-07 11:15:00
5:35 AM,30.9,20.8,66,30.14,10.0,South,17.3,21.9,N/A,,Clear,190,2013-01-07 11:35:00
5:55 AM,30.7,20.8,67,30.13,10.0,South,17.3,23.0,N/A,,Clear,180,2013-01-07 11:55:00
6:35 AM,30.4,21.0,68,30.13,10.0,South,18.4,-,N/A,,Clear,190,2013-01-07 12:35:00
6:55 AM,30.7,21.0,67,30.13,10.0,South,16.1,23.0,N/A,,Clear,190,2013-01-07 12:55:00
7:15 AM,30.7,21.0,67,30.12,10.0,South,19.6,23.0,N/A,,Clear,180,2013-01-07 13:15:00
7:35 AM,30.7,21.2,68,30.11,10.0,South,20.7,24.2,N/A,,Clear,180,2013-01-07 13:35:00
7:55 AM,31.1,21.2,67,30.10,10.0,South,20.7,27.6,N/A,,Clear,180,2013-01-07 13:55:00
8:15 AM,32.0,21.6,65,30.10,10.0,South,19.6,26.5,N/A,,Clear,190,2013-01-07 14:15:00
8:35 AM,32.9,21.7,64,30.09,10.0,South,24.2,28.8,N/A,,Clear,190,2013-01-07 14:35:00
8:55 AM,34.2,22.1,61,30.08,10.0,South,23.0,35.7,N/A,,Clear,190,2013-01-07 14:55:00
9:15 AM,35.6,22.5,59,30.09,10.0,South,23.0,28.8,N/A,,Clear,190,2013-01-07 15:15:00
9:35 AM,36.0,22.6,58,30.09,10.0,South,21.9,28.8,N/A,,Clear,190,2013-01-07 15:35:00
9:55 AM,36.9,23.0,57,30.10,10.0,South,19.6,27.6,N/A,,Clear,190,2013-01-07 15:55:00
10:15 AM,37.6,23.7,57,30.10,10.0,South,19.6,26.5,N/A,,Clear,190,2013-01-07 16:15:00
10:35 AM,39.2,23.7,54,30.09,10.0,South,16.1,-,N/A,,Clear,190,2013-01-07 16:35:00
10:55 AM,41.4,24.6,51,30.09,10.0,SSW,18.4,-,N/A,,Clear,200,2013-01-07 16:55:00
11:15 AM,42.8,24.4,48,30.07,10.0,South,21.9,28.8,N/A,,Clear,190,2013-01-07 17:15:00
11:35 AM,43.3,25.2,49,30.05,10.0,South,18.4,25.3,N/A,,Clear,190,2013-01-07 17:35:00
11:55 AM,44.2,25.3,47,30.04,10.0,South,17.3,25.3,N/A,,Clear,190,2013-01-07 17:55:00
12:15 PM,45.5,24.6,44,30.03,10.0,SSW,21.9,27.6,N/A,,Clear,210,2013-01-07 18:15:00
12:35 PM,46.0,25.7,45,30.02,10.0,SSW,17.3,26.5,N/A,,Clear,200,2013-01-07 18:35:00
1:15 PM,45.5,24.6,44,30.01,10.0,SW,20.7,26.5,N/A,,Clear,220,2013-01-07 19:15:00
1:35 PM,45.7,25.3,45,30.00,10.0,SSW,16.1,-,N/A,,Clear,210,2013-01-07 19:35:00
1:55 PM,46.6,25.3,43,30.00,10.0,SSW,15.0,23.0,N/A,,Clear,210,2013-01-07 19:55:00
2:15 PM,45.7,25.9,46,30.00,10.0,SSW,16.1,21.9,N/A,,Clear,210,2013-01-07 20:15:00
2:35 PM,46.2,26.6,46,30.00,10.0,SSW,16.1,20.7,N/A,,Clear,210,2013-01-07 20:35:00
2:55 PM,45.9,26.2,46,30.00,10.0,SSW,16.1,-,N/A,,Clear,210,2013-01-07 20:55:00
3:15 PM,45.1,26.4,48,30.01,10.0,SSW,13.8,24.2,N/A,,Clear,210,2013-01-07 21:15:00
3:35 PM,45.5,27.1,49,30.01,10.0,SSW,12.7,-,N/A,,Clear,210,2013-01-07 21:35:00
3:55 PM,44.8,27.3,50,30.01,10.0,SSW,11.5,-,N/A,,Clear,210,2013-01-07 21:55:00
4:15 PM,44.2,27.3,51,30.01,10.0,SSW,8.1,-,N/A,,Clear,210,2013-01-07 22:15:00
4:35 PM,42.8,27.7,55,30.01,10.0,SSW,9.2,-,N/A,,Clear,200,2013-01-07 22:35:00
5:15 PM,41.0,27.7,59,30.01,10.0,South,6.9,-,N/A,,Clear,180,2013-01-07 23:15:00
5:35 PM,40.8,27.5,59,30.00,10.0,South,10.4,-,N/A,,Clear,190,2013-01-07 23:35:00
5:55 PM,40.3,27.5,60,30.00,10.0,SSW,8.1,-,N/A,,Clear,200,2013-01-07 23:55:00
6:15 PM,38.7,27.5,64,30.01,10.0,SSE,5.8,-,N/A,,Clear,160,2013-01-08 00:15:00
6:35 PM,38.5,27.5,65,30.01,10.0,South,5.8,-,N/A,,Clear,170,2013-01-08 00:35:00
6:55 PM,38.3,27.5,65,30.02,10.0,South,8.1,-,N/A,,Clear,170,2013-01-08 00:55:00
7:15 PM,36.9,27.5,69,30.02,10.0,South,4.6,-,N/A,,Clear,170,2013-01-08 01:15:00
7:35 PM,35.6,27.0,71,30.02,10.0,Calm,Calm,-,N/A,,Clear,0,2013-01-08 01:35:00
7:55 PM,34.2,27.1,75,30.03,10.0,Calm,Calm,-,N/A,,Clear,0,2013-01-08 01:55:00
8:15 PM,34.9,26.6,72,30.02,10.0,SSW,4.6,-,N/A,,Clear,200,2013-01-08 02:15:00
8:35 PM,32.0,26.2,79,30.02,10.0,Calm,Calm,-,N/A,,Clear,0,2013-01-08 02:35:00
8:55 PM,33.4,26.4,75,30.02,10.0,Calm,Calm,-,N/A,,Clear,0,2013-01-08 02:55:00
9:35 PM,33.8,26.4,74,30.02,10.0,Calm,Calm,-,N/A,,Clear,0,2013-01-08 03:35:00
9:55 PM,32.0,26.1,79,30.01,10.0,Calm,Calm,-,N/A,,Clear,0,2013-01-08 03:55:00
10:15 PM,31.5,25.0,77,30.01,10.0,SSE,4.6,-,N/A,,Clear,160,2013-01-08 04:15:00
10:35 PM,29.7,25.2,83,30.01,10.0,SSE,3.5,-,N/A,,Clear,150,2013-01-08 04:35:00
10:55 PM,29.3,24.8,83,30.01,10.0,Calm,Calm,-,N/A,,Clear,0,2013-01-08 04:55:00
11:15 PM,29.7,24.3,80,30.01,10.0,SSE,5.8,-,N/A,,Clear,150,2013-01-08 05:15:00
11:35 PM,30.2,24.8,80,30.01,10.0,South,5.8,-,N/A,,Clear,170,2013-01-08 05:35:00
11:55 PM,29.8,24.4,80,30.01,10.0,SSE,4.6,-,N/A,,Clear,160,2013-01-08 05:55:00